Retour au catalogue

STARLINK-5280

ActifCommunicationsVLEO
NORAD 54166·PAYLOAD·🇺🇸 United States

Lancé Oct 28, 2022 depuis Vandenberg Space Force Base

Loading…

Prochains Passages (prochaines 24 heures)

TLE

FraisSource: CelesTrak SupGP

Époque: Sep 15, 2026, 01:50 UTC

1 54166C 22141K   26258.07687500 -.00025121  00000+0 -74208-3 0  2582
2 54166  53.1570 219.3167 0001060  86.4614  68.9054 15.34408888    12

Suivez STARLINK-5280 en temps réel avec AllMySat

Download on the App Store